Hourly Data Report for July 13, 2021

POND INLET A
NUNAVUT
Current Station Operator: NAVCAN

72°41'22.000" N
77°58'08.000" W
61.60 m
2403206
71095
YIO

Download Data

Hourly Data (July 2021)
Hourly Data Report for July 13, 2021
TIME
LST
Temp Definition
°C
Dew Point Definition
°C
Rel Hum Definition
%
Precip. Amount Definition
mm

Wind Dir Definition
10's deg

Wind Spd Definition
km/h
Visibility Definition
km
Stn Press Definition
kPa
Hmdx Definition


Wind Chill Definition


Weather Definition


00:00 6.4 5.8 96 0.0 15 4 16.1 98.70     LegendNANA
01:00 7.0 6.7 98 0.0 20 8 16.1 98.70     LegendNANA
02:00 6.6 6.2 97 0.0   0 16.1 98.71     LegendNANA
03:00 5.3 5.2 99 0.0   0 3.2 98.70     Fog
04:00 6.6 6.3 98 0.0 14 4 6.4 98.65     Fog
05:00 8.1 6.7 91 0.0   0 16.1 98.60     LegendNANA
06:00 8.3 6.8 90 0.0 27 5 16.1 98.59     LegendNANA
07:00 7.8 6.6 92 0.0 29 8 16.1 98.56     LegendNANA
08:00 7.9 6.8 93 0.0 30 5 16.1 98.54     LegendNANA
09:00 7.8 6.9 94 0.0 32 4 16.1 98.53     LegendNANA
10:00 7.3 6.8 97 0.0 33 5 16.1 98.52     LegendNANA
11:00 7.8 7.4 97 0.0 LegendMM 4 3.6 98.49     Fog
12:00 8.5 7.4 93 0.0 LegendMM 4 16.1 98.45     LegendNANA
13:00 10.0 8.0 87 0.0 34 5 16.1 98.41     LegendNANA
14:00 8.5 7.5 93 0.0 4 9 16.1 98.37     LegendNANA
15:00 10.4 7.6 83 0.0 5 5 16.1 98.32     LegendNANA
16:00 10.9 7.6 80 0.0 1 8 16.1 98.30     LegendNANA
17:00 7.8 6.9 94 0.0 5 11 16.1 98.29     LegendNANA
18:00 6.9 5.7 92 0.0 33 8 16.1 98.29     LegendNANA
19:00 4.7 4.0 95 0.5 28 5 4.8 98.33     Rain, Fog
20:00 4.1 3.4 95 0.8 8 8 16.1 98.34     LegendNANA
21:00 3.7 1.2 84 0.0 28 13 16.1 98.32     LegendNANA
22:00 3.3 1.5 88 0.0 24 28 16.1 98.29     LegendNANA
23:00 2.4 1.7 95 0.5 23 28 16.1 98.31     Rain

Notes on Data Quality.

Legend

  • E = Estimated
  • M = Missing
  • NA = Not Available*
  • [empty] = Indicates an unobserved value
Date modified: